Wind_Speed
60 57 51 53 52 49 47 45 34 32 29 29 30 27 24 20 19 18 18 16 14 15 13 10 7 5 4 1 1 3 5 5
48 46 42 46 49 50 46 41 33 31 29 30 30 26 24 22 20 21 20 18 16 16 12 8 5 3 4 3 1 2 3 5
41 40 45 49 47 47 41 37 32 29 28 29 28 25 26 21 21 22 22 19 18 18 11 8 6 3 3 1 2 2 1 3
43 44 47 46 42 40 36 33 30 29 28 28 27 27 28 25 23 25 24 21 21 21 13 11 9 6 5 2 2 3 2 2
43 46 46 43 37 34 32 30 27 27 27 30 29 27 27 27 25 24 25 23 22 22 15 15 12 9 11 6 4 4 4 5
45 47 42 36 31 32 31 29 28 29 29 30 30 28 29 29 26 26 26 26 23 24 18 17 17 14 14 13 7 7 7 9
42 39 36 33 30 30 30 29 30 30 30 31 32 29 31 30 28 28 25 25 23 27 20 20 18 17 14 15 10 9 8 9
37 33 35 32 30 29 27 28 29 31 31 32 32 31 30 30 27 31 26 25 24 29 23 21 21 20 18 18 15 13 13 15
37 33 33 31 30 30 27 27 27 31 31 33 32 32 32 29 29 32 28 27 28 31 26 22 24 22 20 22 22 18 17 15
33 30 33 34 31 28 28 28 28 28 29 31 33 32 29 28 31 33 33 28 32 29 25 24 23 22 21 20 22 23 20 17
31 30 33 36 31 26 27 27 30 31 30 32 35 31 28 29 29 32 37 29 33 33 29 25 25 25 25 25 24 25 27 20
30 32 33 33 29 27 23 24 26 30 32 34 34 34 32 28 31 31 34 32 32 35 30 29 29 28 28 28 30 28 31 26
33 29 33 35 31 30 26 23 27 26 28 29 26 29 33 29 29 33 31 30 36 33 36 34 34 31 30 34 33 31 31 30
40 35 33 35 35 36 37 29 27 30 28 30 28 24 28 34 35 32 33 35 35 35 37 38 36 33 32 32 31 31 32 32
41 40 34 33 34 41 41 32 18 29 34 36 37 35 33 33 35 36 36 36 36 35 36 36 36 33 32 31 30 31 34 35
39 42 34 35 34 43 36 31 29 33 36 36 33 32 32 33 32 33 36 37 37 38 38 40 37 34 32 33 34 35 35 35
36 38 35 37 34 38 46 41 36 40 40 37 33 32 31 30 29 28 34 35 39 38 38 40 40 38 39 38 37 36 36 37
43 44 40 40 37 35 39 35 39 35 30 35 36 34 32 33 33 29 34 35 36 38 39 40 40 38 40 39 39 41 39 36
53 48 46 46 43 44 44 42 40 37 33 43 48 47 43 39 39 42 39 42 35 37 40 42 42 38 37 39 37 37 36 33
58 55 53 50 47 49 50 52 53 48 29 46 49 41 41 47 46 44 44 42 42 38 39 42 42 41 39 40 41 38 36 38
Wind_Direction
272 278 279 281 283 282 281 283 276 272 262 255 261 257 245 243 248 258 255 253 254 255 275 276 289 294 308 41 134 177 140 167
272 277 283 281 280 280 280 279 271 266 258 257 259 247 241 247 241 248 244 248 246 247 271 266 269 267 274 302 71 75 167 178
273 278 284 281 280 278 276 272 268 261 256 256 246 236 236 233 241 238 242 244 236 243 257 250 238 240 216 310 306 359 295 226
273 280 283 281 278 274 270 266 264 256 251 249 230 228 233 231 239 239 244 240 239 238 243 230 236 255 285 205 279 310 287 261
279 281 279 278 274 271 265 260 257 251 249 241 227 231 234 231 234 236 244 235 241 231 229 232 233 250 279 263 256 253 284 271
280 282 278 274 268 265 262 256 251 249 245 237 233 233 238 236 237 234 237 231 231 227 227 238 235 242 264 257 252 263 254 259
278 281 274 268 261 259 257 247 246 243 236 233 230 231 233 236 241 235 231 227 230 228 232 238 234 240 246 251 250 268 262 264
279 269 264 261 254 254 251 245 238 234 235 234 223 228 236 241 231 225 222 228 233 228 236 240 239 240 250 249 241 248 267 271
275 259 256 255 253 250 246 239 235 232 235 233 224 229 234 236 222 222 212 229 235 231 235 235 244 245 253 251 244 236 254 284
268 250 250 252 251 248 239 233 230 232 236 233 227 236 233 233 215 221 221 213 231 233 235 234 247 259 264 262 252 242 244 261
259 241 246 250 249 239 236 233 233 230 230 229 236 234 225 228 221 222 225 217 225 236 237 233 241 251 260 263 265 255 254 249
250 242 240 246 239 231 226 229 233 236 237 238 238 232 225 228 219 220 219 216 222 237 239 240 250 252 255 263 267 263 256 258
244 240 239 244 237 226 223 240 233 224 228 230 236 241 234 219 225 220 227 223 221 232 241 250 254 249 257 260 260 261 258 257
240 243 251 240 240 224 215 221 249 235 236 231 227 231 232 228 228 223 229 233 235 241 249 252 253 253 253 258 256 261 263 262
238 241 249 237 239 227 224 212 242 241 241 230 223 224 229 232 230 232 233 235 234 236 241 250 254 256 256 252 258 259 265 265
235 241 247 240 232 227 227 228 237 244 245 239 229 226 228 232 239 239 236 234 239 240 243 250 256 253 256 251 254 261 266 267
234 238 244 241 235 226 227 226 219 229 244 247 228 225 234 235 236 242 247 244 240 242 241 241 246 253 255 257 256 256 260 264
234 233 241 240 240 231 227 226 227 235 245 258 252 252 234 243 250 253 253 246 242 241 242 246 248 249 251 253 257 259 260 258
236 235 236 235 232 223 222 223 228 230 243 256 254 256 255 252 249 259 259 249 250 247 245 245 247 248 251 256 258 258 255 254
228 233 233 229 229 232 229 220 219 216 226 250 238 251 255 259 258 257 255 253 259 260 253 246 250 250 250 252 258 262 259 254
Height
10765 10765 10764 10763 10762 10760 10759 10760 10761 10762 10764 10766 10767 10770 10773 10775 10777 10779 10781 10783 10785 10786 10786 10785 10785 10785 10784 10785 10784 10785 10786 10787
10753 10754 10755 10754 10753 10751 10751 10751 10754 10755 10757 10760 10761 10764 10767 10769 10772 10775 10777 10779 10781 10782 10782 10782 10783 10783 10783 10783 10783 10783 10784 10785
10745 10745 10744 10743 10743 10742 10742 10743 10747 10748 10750 10753 10755 10758 10761 10763 10767 10770 10772 10775 10776 10778 10780 10780 10780 10781 10782 10780 10781 10782 10782 10783
10736 10737 10735 10732 10733 10733 10733 10737 10739 10742 10743 10746 10748 10751 10754 10758 10762 10765 10767 10770 10773 10775 10776 10777 10778 10778 10779 10780 10779 10780 10781 10782
10726 10726 10725 10723 10724 10725 10727 10731 10733 10735 10737 10740 10742 10746 10748 10753 10756 10759 10762 10765 10768 10771 10772 10773 10775 10775 10777 10778 10778 10778 10780 10780
10716 10715 10714 10715 10717 10718 10722 10725 10727 10728 10731 10735 10738 10740 10742 10747 10751 10754 10757 10760 10763 10766 10767 10769 10771 10772 10773 10775 10776 10776 10777 10778
10708 10706 10705 10707 10710 10712 10714 10717 10719 10721 10724 10728 10732 10734 10737 10740 10746 10749 10752 10756 10759 10762 10764 10765 10767 10768 10769 10771 10773 10774 10775 10775
10700 10697 10698 10699 10702 10705 10707 10710 10713 10716 10719 10722 10725 10729 10731 10735 10741 10743 10747 10754 10755 10757 10760 10761 10762 10764 10764 10768 10770 10770 10771 10771
10691 10690 10691 10693 10695 10698 10701 10704 10707 10710 10714 10718 10720 10723 10726 10730 10736 10738 10743 10746 10749 10751 10754 10757 10758 10760 10759 10763 10765 10767 10767 10768
10682 10684 10684 10686 10689 10691 10693 10697 10701 10705 10710 10713 10715 10717 10721 10726 10730 10734 10737 10738 10743 10746 10749 10751 10754 10755 10756 10758 10760 10762 10763 10763
10673 10676 10677 10679 10682 10686 10687 10691 10695 10699 10703 10706 10707 10711 10716 10720 10724 10728 10730 10735 10740 10741 10743 10747 10749 10751 10751 10751 10755 10757 10758 10758
10664 10668 10670 10672 10675 10680 10683 10685 10690 10694 10697 10700 10703 10706 10711 10713 10718 10722 10725 10728 10733 10737 10739 10741 10745 10748 10748 10746 10748 10751 10753 10754
10655 10661 10663 10666 10670 10674 10678 10680 10683 10687 10691 10695 10698 10700 10704 10708 10711 10715 10717 10721 10726 10730 10733 10735 10738 10741 10743 10740 10740 10745 10747 10748
10646 10651 10655 10660 10663 10667 10666 10670 10676 10680 10685 10688 10692 10693 10694 10700 10704 10709 10712 10716 10720 10725 10728 10728 10731 10734 10736 10735 10734 10736 10738 10741
10635 10641 10647 10652 10656 10659 10659 10663 10667 10673 10675 10677 10680 10682 10686 10690 10697 10702 10706 10710 10714 10718 10720 10721 10723 10726 10728 10730 10728 10728 10732 10734
10629 10632 10640 10641 10647 10651 10654 10659 10662 10666 10667 10672 10679 10681 10682 10683 10688 10694 10699 10703 10706 10710 10712 10712 10716 10717 10720 10722 10722 10723 10724 10725
10621 10621 10627 10631 10638 10641 10644 10650 10655 10658 10659 10665 10673 10676 10679 10681 10681 10685 10690 10694 10697 10701 10702 10705 10707 10710 10711 10715 10715 10716 10717 10717
10605 10610 10612 10619 10627 10632 10637 10643 10647 10653 10657 10661 10666 10670 10675 10677 10677 10677 10682 10687 10690 10692 10695 10698 10700 10702 10704 10706 10707 10709 10709 10711
10587 10594 10599 10606 10612 10619 10627 10632 10641 10646 10652 10653 10654 10662 10668 10672 10671 10671 10673 10677 10681 10685 10688 10690 10692 10695 10698 10699 10700 10701 10703 10705
10572 10576 10586 10592 10598 10603 10611 10618 10626 10631 10631 10639 10643 10650 10654 10659 10664 10663 10663 10667 10670 10676 10681 10682 10683 10685 10690 10693 10693 10694 10696 10698